![]() |
EMODnet Physics ERDDAP
Easier access to scientific data |
log in|
Brought to you by EMODnet Physics |
| Dataset Title: | NDBC - Collection of dew point temperature (DEWT) TimeSeries - IN SITU MultiPointTimeSeriesObservation
|
| Institution: | NDBC (Dataset ID: TS_DEWT_NDBC) |
| Information: | Summary
| License
| FGDC
| ISO 19115
| Metadata
| Background
| Subset
| Data Access Form
| Make a graph
|
| Name | Last modified | Size | Description | |
|---|---|---|---|---|
| Parent Directory | - | - | ||
| LPNM4_TS_DEWT_012015.nc | 20-Dec-2024 13:43 | 428605 | ||
| LPNM4_TS_DEWT_012016.nc | 20-Dec-2024 13:49 | 427991 | ||
| LPNM4_TS_DEWT_012017.nc | 20-Dec-2024 13:55 | 428682 | ||
| LPNM4_TS_DEWT_012018.nc | 20-Dec-2024 14:01 | 429026 | ||
| LPNM4_TS_DEWT_012019.nc | 20-Dec-2024 14:07 | 428679 | ||
| LPNM4_TS_DEWT_012020.nc | 20-Dec-2024 14:13 | 428681 | ||
| LPNM4_TS_DEWT_012021.nc | 20-Dec-2024 14:20 | 448077 | ||
| LPNM4_TS_DEWT_012022.nc | 20-Dec-2024 14:26 | 448139 | ||
| LPNM4_TS_DEWT_012023.nc | 20-Dec-2024 14:32 | 443435 | ||
| LPNM4_TS_DEWT_012025.nc | 07-Feb-2025 13:12 | 447449 | ||
| LPNM4_TS_DEWT_012026.nc | 02-Feb-2026 19:45 | 447848 | ||
| LPNM4_TS_DEWT_022015.nc | 20-Dec-2024 13:44 | 448888 | ||
| LPNM4_TS_DEWT_022016.nc | 20-Dec-2024 13:49 | 447314 | ||
| LPNM4_TS_DEWT_022017.nc | 20-Dec-2024 13:55 | 447199 | ||
| LPNM4_TS_DEWT_022018.nc | 20-Dec-2024 14:01 | 448373 | ||
| LPNM4_TS_DEWT_022019.nc | 20-Dec-2024 14:07 | 448997 | ||
| LPNM4_TS_DEWT_022020.nc | 20-Dec-2024 14:14 | 440854 | ||
| LPNM4_TS_DEWT_022021.nc | 20-Dec-2024 14:20 | 448286 | ||
| LPNM4_TS_DEWT_022022.nc | 20-Dec-2024 14:27 | 422134 | ||
| LPNM4_TS_DEWT_022023.nc | 20-Dec-2024 14:33 | 429218 | ||
| LPNM4_TS_DEWT_022025.nc | 01-Mar-2025 08:22 | 447273 | ||
| LPNM4_TS_DEWT_022026.nc | 01-Mar-2026 11:25 | 428868 | ||
| LPNM4_TS_DEWT_032014.nc | 20-Dec-2024 13:38 | 447631 | ||
| LPNM4_TS_DEWT_032015.nc | 20-Dec-2024 13:44 | 448716 | ||
| LPNM4_TS_DEWT_032016.nc | 20-Dec-2024 13:50 | 446883 | ||
| LPNM4_TS_DEWT_032017.nc | 20-Dec-2024 13:56 | 441446 | ||
| LPNM4_TS_DEWT_032018.nc | 20-Dec-2024 14:02 | 449115 | ||
| LPNM4_TS_DEWT_032019.nc | 20-Dec-2024 14:08 | 446814 | ||
| LPNM4_TS_DEWT_032020.nc | 20-Dec-2024 14:14 | 447119 | ||
| LPNM4_TS_DEWT_032021.nc | 20-Dec-2024 14:21 | 428872 | ||
| LPNM4_TS_DEWT_032022.nc | 20-Dec-2024 14:27 | 426973 | ||
| LPNM4_TS_DEWT_032023.nc | 20-Dec-2024 14:33 | 429655 | ||
| LPNM4_TS_DEWT_032025.nc | 02-Apr-2025 06:19 | 429666 | ||
| LPNM4_TS_DEWT_032026.nc | 25-Mar-2026 15:02 | 429685 | ||
| LPNM4_TS_DEWT_042014.nc | 20-Dec-2024 13:38 | 429677 | ||
| LPNM4_TS_DEWT_042015.nc | 20-Dec-2024 13:44 | 429675 | ||
| LPNM4_TS_DEWT_042016.nc | 20-Dec-2024 13:50 | 429667 | ||
| LPNM4_TS_DEWT_042017.nc | 20-Dec-2024 13:56 | 429688 | ||
| LPNM4_TS_DEWT_042018.nc | 20-Dec-2024 14:02 | 429664 | ||
| LPNM4_TS_DEWT_042019.nc | 20-Dec-2024 14:08 | 429594 | ||
| LPNM4_TS_DEWT_042020.nc | 20-Dec-2024 14:15 | 429688 | ||
| LPNM4_TS_DEWT_042021.nc | 20-Dec-2024 14:21 | 429668 | ||
| LPNM4_TS_DEWT_042022.nc | 20-Dec-2024 14:28 | 429683 | ||
| LPNM4_TS_DEWT_042023.nc | 20-Dec-2024 14:34 | 429689 | ||
| LPNM4_TS_DEWT_042025.nc | 01-May-2025 06:53 | 429676 | ||
| LPNM4_TS_DEWT_052014.nc | 20-Dec-2024 13:39 | 451237 | ||
| LPNM4_TS_DEWT_052015.nc | 20-Dec-2024 13:45 | 449858 | ||
| LPNM4_TS_DEWT_052016.nc | 20-Dec-2024 13:51 | 450252 | ||
| LPNM4_TS_DEWT_052017.nc | 20-Dec-2024 13:57 | 450644 | ||
| LPNM4_TS_DEWT_052018.nc | 20-Dec-2024 14:03 | 449922 | ||
| LPNM4_TS_DEWT_052019.nc | 20-Dec-2024 14:09 | 451005 | ||
| LPNM4_TS_DEWT_052020.nc | 20-Dec-2024 14:15 | 450988 | ||
| LPNM4_TS_DEWT_052021.nc | 20-Dec-2024 14:22 | 450907 | ||
| LPNM4_TS_DEWT_052022.nc | 20-Dec-2024 14:28 | 450964 | ||
| LPNM4_TS_DEWT_052023.nc | 20-Dec-2024 14:34 | 450867 | ||
| LPNM4_TS_DEWT_052025.nc | 01-Jun-2025 07:39 | 429900 | ||
| LPNM4_TS_DEWT_062014.nc | 20-Dec-2024 13:40 | 449994 | ||
| LPNM4_TS_DEWT_062015.nc | 20-Dec-2024 13:45 | 427122 | ||
| LPNM4_TS_DEWT_062016.nc | 20-Dec-2024 13:51 | 429904 | ||
| LPNM4_TS_DEWT_062017.nc | 20-Dec-2024 13:57 | 450611 | ||
| LPNM4_TS_DEWT_062018.nc | 20-Dec-2024 14:03 | 429899 | ||
| LPNM4_TS_DEWT_062019.nc | 20-Dec-2024 14:09 | 450623 | ||
| LPNM4_TS_DEWT_062020.nc | 20-Dec-2024 14:16 | 450657 | ||
| LPNM4_TS_DEWT_062021.nc | 20-Dec-2024 14:22 | 450227 | ||
| LPNM4_TS_DEWT_062022.nc | 20-Dec-2024 14:29 | 443593 | ||
| LPNM4_TS_DEWT_062023.nc | 20-Dec-2024 14:35 | 423307 | ||
| LPNM4_TS_DEWT_062025.nc | 17-Jun-2025 06:01 | 450363 | ||
| LPNM4_TS_DEWT_072014.nc | 20-Dec-2024 13:40 | 443533 | ||
| LPNM4_TS_DEWT_072015.nc | 20-Dec-2024 13:46 | 433160 | ||
| LPNM4_TS_DEWT_072016.nc | 20-Dec-2024 13:52 | 429859 | ||
| LPNM4_TS_DEWT_072017.nc | 20-Dec-2024 13:58 | 429328 | ||
| LPNM4_TS_DEWT_072018.nc | 20-Dec-2024 14:04 | 425730 | ||
| LPNM4_TS_DEWT_072019.nc | 20-Dec-2024 14:10 | 429337 | ||
| LPNM4_TS_DEWT_072020.nc | 20-Dec-2024 14:16 | 429349 | ||
| LPNM4_TS_DEWT_072021.nc | 20-Dec-2024 14:23 | 429357 | ||
| LPNM4_TS_DEWT_072022.nc | 20-Dec-2024 14:29 | 429353 | ||
| LPNM4_TS_DEWT_072023.nc | 20-Dec-2024 14:35 | 429120 | ||
| LPNM4_TS_DEWT_072025.nc | 16-Aug-2025 08:17 | 429353 | ||
| LPNM4_TS_DEWT_082014.nc | 20-Dec-2024 13:41 | 429356 | ||
| LPNM4_TS_DEWT_082015.nc | 20-Dec-2024 13:46 | 428924 | ||
| LPNM4_TS_DEWT_082016.nc | 20-Dec-2024 13:52 | 429355 | ||
| LPNM4_TS_DEWT_082017.nc | 20-Dec-2024 13:58 | 429346 | ||
| LPNM4_TS_DEWT_082018.nc | 20-Dec-2024 14:04 | 429349 | ||
| LPNM4_TS_DEWT_082019.nc | 20-Dec-2024 14:11 | 428849 | ||
| LPNM4_TS_DEWT_082020.nc | 20-Dec-2024 14:17 | 429360 | ||
| LPNM4_TS_DEWT_082021.nc | 20-Dec-2024 14:24 | 449255 | ||
| LPNM4_TS_DEWT_082022.nc | 20-Dec-2024 14:30 | 449568 | ||
| LPNM4_TS_DEWT_082023.nc | 20-Dec-2024 14:36 | 448395 | ||
| LPNM4_TS_DEWT_082025.nc | 01-Sep-2025 08:09 | 449373 | ||
| LPNM4_TS_DEWT_092014.nc | 20-Dec-2024 13:41 | 448813 | ||
| LPNM4_TS_DEWT_092015.nc | 20-Dec-2024 13:47 | 443511 | ||
| LPNM4_TS_DEWT_092016.nc | 20-Dec-2024 13:53 | 450227 | ||
| LPNM4_TS_DEWT_092017.nc | 20-Dec-2024 13:59 | 449472 | ||
| LPNM4_TS_DEWT_092018.nc | 20-Dec-2024 14:04 | 449671 | ||
| LPNM4_TS_DEWT_092019.nc | 20-Dec-2024 14:11 | 449219 | ||
| LPNM4_TS_DEWT_092020.nc | 20-Dec-2024 14:17 | 429560 | ||
| LPNM4_TS_DEWT_092021.nc | 20-Dec-2024 14:24 | 448887 | ||
| LPNM4_TS_DEWT_092022.nc | 20-Dec-2024 14:30 | 429560 | ||
| LPNM4_TS_DEWT_092023.nc | 20-Dec-2024 14:37 | 429561 | ||
| LPNM4_TS_DEWT_092025.nc | 01-Oct-2025 08:36 | 449109 | ||
| LPNM4_TS_DEWT_102014.nc | 20-Dec-2024 13:42 | 429563 | ||
| LPNM4_TS_DEWT_102015.nc | 20-Dec-2024 13:47 | 449164 | ||
| LPNM4_TS_DEWT_102016.nc | 20-Dec-2024 13:53 | 449574 | ||
| LPNM4_TS_DEWT_102017.nc | 20-Dec-2024 13:59 | 449089 | ||
| LPNM4_TS_DEWT_102018.nc | 20-Dec-2024 14:05 | 418871 | ||
| LPNM4_TS_DEWT_102019.nc | 20-Dec-2024 14:12 | 449010 | ||
| LPNM4_TS_DEWT_102020.nc | 20-Dec-2024 14:18 | 448911 | ||
| LPNM4_TS_DEWT_102021.nc | 20-Dec-2024 14:25 | 449611 | ||
| LPNM4_TS_DEWT_102022.nc | 20-Dec-2024 14:31 | 429561 | ||
| LPNM4_TS_DEWT_102023.nc | 20-Dec-2024 14:37 | 429556 | ||
| LPNM4_TS_DEWT_102025.nc | 01-Nov-2025 08:09 | 429649 | ||
| LPNM4_TS_DEWT_112014.nc | 20-Dec-2024 13:42 | 429671 | ||
| LPNM4_TS_DEWT_112015.nc | 20-Dec-2024 13:48 | 429633 | ||
| LPNM4_TS_DEWT_112016.nc | 20-Dec-2024 13:54 | 429683 | ||
| LPNM4_TS_DEWT_112017.nc | 20-Dec-2024 14:00 | 429677 | ||
| LPNM4_TS_DEWT_112018.nc | 20-Dec-2024 14:06 | 429678 | ||
| LPNM4_TS_DEWT_112019.nc | 20-Dec-2024 14:12 | 429685 | ||
| LPNM4_TS_DEWT_112020.nc | 20-Dec-2024 14:19 | 429676 | ||
| LPNM4_TS_DEWT_112021.nc | 20-Dec-2024 14:25 | 429681 | ||
| LPNM4_TS_DEWT_112022.nc | 20-Dec-2024 14:31 | 429691 | ||
| LPNM4_TS_DEWT_112023.nc | 20-Dec-2024 14:38 | 429663 | ||
| LPNM4_TS_DEWT_112024.nc | 17-Jan-2025 19:17 | 429662 | ||
| LPNM4_TS_DEWT_112025.nc | 01-Dec-2025 06:49 | 429690 | ||
| LPNM4_TS_DEWT_122014.nc | 20-Dec-2024 13:43 | 429680 | ||
| LPNM4_TS_DEWT_122015.nc | 20-Dec-2024 13:48 | 429359 | ||
| LPNM4_TS_DEWT_122016.nc | 20-Dec-2024 13:54 | 449694 | ||
| LPNM4_TS_DEWT_122017.nc | 20-Dec-2024 14:00 | 450512 | ||
| LPNM4_TS_DEWT_122018.nc | 20-Dec-2024 14:06 | 446950 | ||
| LPNM4_TS_DEWT_122019.nc | 20-Dec-2024 14:13 | 449700 | ||
| LPNM4_TS_DEWT_122020.nc | 20-Dec-2024 14:19 | 450319 | ||
| LPNM4_TS_DEWT_122021.nc | 20-Dec-2024 14:26 | 443710 | ||
| LPNM4_TS_DEWT_122022.nc | 20-Dec-2024 14:32 | 450312 | ||
| LPNM4_TS_DEWT_122023.nc | 20-Dec-2024 14:38 | 449604 | ||
| LPNM4_TS_DEWT_122024.nc | 22-Jan-2025 19:29 | 450255 | ||
| LPNM4_TS_DEWT_122025.nc | 01-Jan-2026 07:21 | 451472 | ||